Regional Weather Roundup
Issued by NWS Northern Indiana

Home | Current Version | Previous Version | Graphics & Text | Print | Product List | Glossary On
Versions: 1 2 3 4 5 6 7 8 9 10 11 12 13 14 15 16 17 18 19 20 21 22 23 24 25 26 27 28 29 30 31 32 33 34 35 36 37 38 39 40 41 42 43 44 45 46 47 48 49 50
000
ASUS43 KIWX 291800
RWRIWX

KIWX WEATHER ROUNDUP
NATIONAL WEATHER SERVICE NORTHERN INDIANA
200 PM EDT FRI APR 29 2016

NOTE: "FAIR" INDICATES FEW OR NO CLOUDS BELOW 12,000 FEET WITH NO
SIGNIFICANT WEATHER AND/OR OBSTRUCTIONS TO VISIBILITY.

* THESE STATIONS ARE NOT UNDER NWS QUALITY CONTROL. THEY ALSO MAY NOT
  REPORT WEATHER SUCH AS PRECIPITATION OR FOG.

INZ001>027-291900-
NORTHERN INDIANA

CITY           SKY/WX    TMP DP  RH WIND       PRES   REMARKS
GARY*          CLOUDY    46  45  93 N12       30.12R
SOUTH BEND     CLOUDY    50  45  83 N5        30.08R
6HR MIN TEMP:  45; 6HR MAX TEMP:  50;

ELKHART*       CLOUDY    50  46  87 NE3       30.07R
GOSHEN         CLOUDY    52  44  74 CALM      30.07R
6HR MIN TEMP:  45; 6HR MAX TEMP:  52; 6HR PCP: TRACE;

ANGOLA*        CLOUDY    52  41  66 VRB5      30.06S
FORT WAYNE     CLOUDY    51  45  79 CALM      30.08R
6HR MIN TEMP:  45; 6HR MAX TEMP:  52; 6HR PCP: TRACE;


$$
INZ028>050-291900-
CENTRAL INDIANA

CITY           SKY/WX    TMP DP  RH WIND       PRES   REMARKS
LAFAYETTE      CLOUDY    55  47  74 VRB3      30.07F
6HR MIN TEMP:  46; 6HR MAX TEMP:  55;

KOKOMO*        CLOUDY    55  46  71 N7        30.06F
6HR MIN TEMP:  48; 6HR MAX TEMP:  55;

MUNCIE*        CLOUDY    59  48  67 N10       30.05S
6HR MIN TEMP:  50; 6HR MAX TEMP:  59;

INDIANAPOLIS   CLOUDY    61  46  57 NW7       30.05S
6HR MIN TEMP:  51; 6HR MAX TEMP:  62;


$$
MIZ043>046-050>051-056>058-064>065-071>073-077>080-291900-
SOUTHWEST LOWER MICHIGAN

CITY           SKY/WX    TMP DP  RH WIND       PRES   REMARKS
BATTLE CREEK   CLOUDY    51  39  63 N9        30.08F
6HR MIN TEMP:  43; 6HR MAX TEMP:  51; 6HR PCP: TRACE;

BENTON HARBOR  CLOUDY    48  43  82 N5        30.09R
6HR MIN TEMP:  46; 6HR MAX TEMP:  50; 6HR PCP:  0.01;

COLDWATER*     MOSUNNY   52  41  66 CALM      30.08R
6HR MIN TEMP:  44; 6HR MAX TEMP:  52;

HILLSDALE*     PTSUNNY   51  40  66 N6        30.05R
6HR MIN TEMP:  44; 6HR MAX TEMP:  52;

HOLLAND        CLOUDY    48  38  68 E5        30.12S
6HR MIN TEMP:  42; 6HR MAX TEMP:  49;

GRAND RAPIDS   CLOUDY    48  38  68 E6        30.11S
KALAMAZOO      CLOUDY    52  40  63 N9        30.08F
6HR MIN TEMP:  44; 6HR MAX TEMP:  52; 6HR PCP:  0.05;

STURGIS*       CLOUDY    48  42  79 NE3       30.07R
6HR MIN TEMP:  43; 6HR MAX TEMP:  48; 6HR PCP:  0.01;

THREE RIVERS*  CLOUDY    49  43  79 N3        30.10R

$$
OHZ001>008-015>018-024>025-291900-
NORTHWEST OHIO

CITY           SKY/WX    TMP DP  RH WIND       PRES   REMARKS
DEFIANCE       CLOUDY    54  41  61 NW3       30.07R
6HR MIN TEMP:  48; 6HR MAX TEMP:  54; 6HR PCP: TRACE;

FINDLAY        CLOUDY    53  41  63 N8        30.05S
6HR MIN TEMP:  45; 6HR MAX TEMP:  53;

TOLEDO EXPRESS PTSUNNY   55  38  52 N10       30.06S
6HR MIN TEMP:  45; 6HR MAX TEMP:  55;

TOLEDO METCALF PTSUNNY   53  39  59 N9G16     30.07S
6HR MIN TEMP:  46; 6HR MAX TEMP:  54;

LIMA           CLOUDY    49  45  86 NW6       30.06R
6HR MIN TEMP:  44; 6HR MAX TEMP:  50; 6HR PCP: TRACE;


$$
AND FOR LAKE MICHIGAN COASTAL AND OPEN LAKE BUOY OBSERVATIONS

STATION/POSITION TEMP    WIND        PRES    VSBY  WAVE
                 AIR SEA DIR/SP/G                  HT/PER
                 (F)     (DEG/KT/KT) (MB)    (MI)  (FT/S)
CALUMET HARBOR    43     340/ 15/ 19 1018.9R
MICHIGAN CITY     42     320/ 15/ 16   N/A
BURNS HARBOR      42     350/ 12/ 15 1019.6S
SAINT JOSEPH      47     330/  9/ 11 1018.3F
SOUTH LAKE BUOY   40 40   40/ 10/ 10 1019.7          1/ 3
4 MI NW BRIDGMAN  43 46     CALM       N/A           2/ 4

$$
&&



USA.gov is the U.S. government's official web portal to all federal, state and local government web resources and services.